Regional Weather Roundup
Issued by NWS

Home | Current Version | Previous Version | Text Only | Print | Product List | Glossary On
Versions: 1 2 3 4 5 6 7 8 9 10 11 12 13 14 15 16 17 18 19 20 21 22 23 24 25 26 27 28 29 30 31 32 33 34 35 36 37 38 39 40 41 42 43 44 45 46 47 48 49 50
000
ASUS43 KMKX 022211
RWRWI

WISCONSIN REGIONAL WEATHER ROUNDUP
NATIONAL WEATHER SERVICE MILWAUKEE/SULLIVAN WI
500 PM CDT THU JUL 02 2015

NOTE: "FAIR" INDICATES FEW OR NO CLOUDS BELOW 12,000 FEET WITH NO
SIGNIFICANT WEATHER AND/OR OBSTRUCTIONS TO VISIBILITY.

WIZ001-002-006>008-014>016-023>028-022300-
NORTHWEST WISCONSIN

CITY           SKY/WX    TMP DP  RH WIND       PRES   REMARKS
SUPERIOR ARPT  MOSUNNY   77  59  53 W7        29.96S
ASHLAND        SUNNY     76  57  51 W9        29.97F
HAYWARD        SUNNY     75  52  44 S7        30.00F
SIREN          SUNNY     77  47  34 SW5       30.00F
CUMBERLAND     SUNNY     72  50  46 S3        30.01F
RICE LAKE      SUNNY     74  49  41 S5        30.02F
CHETEK         SUNNY     74  53  46 SE3       30.01F
LADYSMITH      SUNNY     75  53  45 S7        30.03S
EAU CLAIRE     SUNNY     76  53  44 SE8       29.99F
MENOMONIE      SUNNY     76  52  42 CALM      30.00F
NEW RICHMOND   SUNNY     74  53  47 S6        30.01S
OSCEOLA        SUNNY     76  50  39 SE6       30.02F
$$

WIZ003>005-009-010-017-018-022300-
NORTH CENTRAL WISCONSIN

CITY           SKY/WX    TMP DP  RH WIND       PRES   REMARKS
MANITOWISH WTR MOSUNNY   74  54  50 SW5       30.00F
ARBOR VITAE    PTSUNNY   77  54  44 SW5       30.01S
WOODRUFF       PTSUNNY   77  54  44 SW5       30.01S
RHINELANDER    SUNNY     76  49  38 W6        30.02F
EAGLE RIVER    MOSUNNY   72  48  43 W6        30.01S
LAND O LAKES   SUNNY     75  48  38 SW3       30.01F
PHILLIPS       MOSUNNY   74  54  49 W3        30.01S
TOMAHAWK       SUNNY     74  49  42 CALM      30.02F
MEDFORD        SUNNY     73  53  50 S3        30.02S
MERRILL        SUNNY     74  50  42 S3        30.02S
$$

WIZ029-030-035-036-043>047-022300-
CENTRAL WISCONSIN

CITY           SKY/WX    TMP DP  RH WIND       PRES   REMARKS
WAUSAU         SUNNY     75  47  36 SE9       30.00F
MOSINEE        NOT AVBL
MARSHFIELD     SUNNY     74  49  41 E5        30.02F
STEVENS POINT  SUNNY     71  49  45 SE7       30.02F
WAUPACA        SUNNY     76  48  36 SE7       30.01F
WAUTOMA        SUNNY     73  46  38 E7        30.02F
WISC RAPIDS    SUNNY     74  46  36 SE9       30.02F
CAMP DOUGLAS   SUNNY     73  52  48 SE7       30.01S
$$

WIZ011>013-019>022-031-037>040-048>050-022300-
NORTHEAST WISCONSIN

CITY           SKY/WX    TMP DP  RH WIND       PRES   REMARKS
ANTIGO         SUNNY     71  53  51 SW7       30.03S
SHAWANO        SUNNY     75  47  36 SE6       30.02S
OCONTO         SUNNY     71  49  45 E7        30.02S
STURGEON BAY   SUNNY     68  45  42 E5        30.05F
GREEN BAY      SUNNY     73  45  36 SE8       30.02F
MANITOWOC      SUNNY     68  46  45 MISG      30.03F
APPLETON       SUNNY     72  43  35 E7        30.03S
CLINTONVILLE   SUNNY     73  48  40 S3        30.01F
OSHKOSH        SUNNY     73  46  38 VRB6      30.02S
$$

WIZ032>034-041-042-053>061-022300-
SOUTHWEST WISCONSIN

CITY           SKY/WX    TMP DP  RH WIND       PRES   REMARKS
LA CROSSE      SUNNY     77  53  43 E7        29.99F
SPARTA         SUNNY     76  48  36 E6        30.01F
VIROQUA        SUNNY     73  51  46 E7        30.02S
BOSCOBEL       SUNNY     74  51  44 VRB3      30.00S
PRAIRIE DU CHI MOSUNNY   71  48  43 NE7       30.00S
PLATTEVILLE    MOSUNNY   71  48  43 NE8       30.00F
$$

WIZ056-057-062-063-064-067-068-022300-
SOUTH CENTRAL WISCONSIN

CITY           SKY/WX    TMP DP  RH WIND       PRES   REMARKS
REEDSBURG      SUNNY     72  51  48 E6        30.01S
BARABOO/DELLS  SUNNY     72  47  41 E7        30.02S
LONE ROCK      SUNNY     73  48  41 CALM      30.01F
MINERAL POINT  SUNNY     72  46  40 E6        30.02R
MADISON        SUNNY     71  48  43 E9        30.00F
MIDDLETON      SUNNY     73  45  36 E6        30.01F
WATERTOWN      SUNNY     71  46  41 SE6       30.01S
MONROE         SUNNY     68  52  56 NE7       30.00S
JANESVILLE     SUNNY     73  45  35 E12       29.99S
$$

WIZ051-052-058>065-066-070>072-022300-
SOUTHEAST WISCONSIN

CITY           SKY/WX    TMP DP  RH WIND       PRES   REMARKS
MILWAUKEE      MOSUNNY   63  48  58 NE9       30.02F
WAUKESHA       SUNNY     66  48  52 E7        30.03S
MILWAUKEE/TIMM SUNNY     66  45  45 NE5       30.03S
RACINE         SUNNY     63  48  58 N8        30.03F
BURLINGTON     SUNNY     67  51  57 E6        30.01R
KENOSHA        SUNNY     67  53  61 N8        30.01S
FOND DU LAC    SUNNY     73  44  35 NE6       30.02S
SHEBOYGAN      SUNNY     66  46  48 E9        30.03F
WEST BEND      SUNNY     68  43  40 NE9       30.02S
JUNEAU         SUNNY     72  48  42 E9        30.02S
$$

LSZ147-162-022300-
LAKE SUPERIOR

STATION/POSITION TIME  TEMP    WIND        PRES    WAVE
                       AIR SEA DIR/SP/G            HT/PER
                 (UTC) (F)     (DEG/KT/KT) (MB)    (FT/S)
W MID LAKE BUOY  2150   50 39  190/ 10/ 10 1014.1F   1
DEVILS ISLAND    2200   70     230/ 10/ 12 1013.8F
SAXON HARBOR     2100   78     210/  3/  7 1014.6
$$

LMZ867-665-643>646-022300-
LAKE MICHIGAN

STATION/POSITION TIME  TEMP    WIND        PRES    WAVE
                       AIR SEA DIR/SP/G            HT/PER
                 (UTC) (F)     (DEG/KT/KT) (MB)    (FT/S)
CHAMBERS ISLAND  2100   72     340/  2/  3 1016.9F
N MID LAKE BUOY  2150   59 56  190/  2/  2 1017.1F   0
NORTHPORT PIER   2100   60     140/  7/  9 1016.9F
SISTER BAY       2114   69     180/ 10/ 12   N/A
ALGOMA LAKESHORE 2110           80/  7/  8   N/A
KEWAUNEE LAKESHO 2100   62      40/  2/  7 1016.8F
SHEBOYGAN LAKESH 2200   57      20/  8/  8 1017.3F
PORT WASHINGTON  2100   61      40/  7/ 10 1017.6F
ATWATER BUOY     2200   58      10/ 10/ 14 1018.0S
MILWAUKEE LAKESH 2100   58      30/ 10/ 11   N/A
KENOSHA   LAKESH 2200   58      30/ 14/ 17 1016.3S
$$

TC  - TEMPERATURE IN CELSIUS
VSB - VISIBILITY IN STATUTE MILES
WCI - WIND CHILL INDEX
HX  - HEAT INDEX



USA.gov is the U.S. government's official web portal to all federal, state and local government web resources and services.